Location: New Canada
(47.1017°N, 68.5042°W)
Time: 13:57:45
(UTC+00:00)

N. Korean satellite - Pass Details

Date: 03 December 2022
Orbit: 407 x 441 km, 97.3° (Epoch: 05 February)

Event Time Altitude Azimuth Distance (km) Brightness Sun altitude
Rises 10:15:09 0° 8° (N) 2,528 10.1 -17.4°
Reaches altitude 10° 10:17:15 10° 4° (N) 1,642 9.1 -17.1°
Maximum altitude 10:20:42 55° 287° (WNW) 568 6.5 -16.5°
Drops below altitude 10° 10:24:05 10° 208° (SSW) 1,607 9.1 -16.0°
Sets 10:26:08 0° 204° (SSW) 2,467 10.1 -15.6°
